Home > Weather > Whitehorse > Past weeks

Flag for Canada Weather for the Past 2 Weeks in Whitehorse, Yukon, Canada

Now
41 °F

Partly cloudy.


Feels Like: 35 °F
Forecast: 32 / 52 °F
Wind: 9 mph from Southeast

Location: Whitehorse

Current Time: May 3, 2016 at 1:46:48 AM

Latest Report: May 3, 2016 at 1:00 AM


Visibility: 15 mi

Pressure: 29.91 "Hg (27.65 "Hg at 640m altitude)

Humidity: 53%

Dew Point: 25 °F

Location of WhitehorseLocation

Historic Weather in Whitehorse — Graph

°F

Whitehorse Temperature Yesterday

Maximum temperature yesterday: 57 °F (at 1:00 PM)
Minimum temperature yesterday: 41 °F (at 1:00 AM)
Average temperature yesterday: 48 °F

High & Low Weather Summary for the Past Weeks

 TemperatureHumidityPressure
High59 °F (Apr 24, 3:00 PM)93% (Apr 24, 5:00 AM)30.25 "Hg (Apr 24, 5:00 AM)
Low25 °F (Apr 20, 6:00 AM)19% (Apr 20, 6:00 PM)29.67 "Hg (May 2, 7:00 AM)
Average43 °F53%29.91 "Hg
* Reported Midnight between Apr 17 and Apr 18 — Midnight between May 2 and May 3, Whitehorse, Weather by CustomWeather, © 2016

Note: Actual official high and low records may vary slightly from our data, if they occured in-between our weather recording intervals... More about our weather records

Advertising

Whitehorse Weather History for the Previous 24 Hours

Scroll right to see more
 ConditionsComfort  
Time TempWeatherWind HumidityBarometerVisibility
12:00 AM
Tue, May 3
41 °FPassing clouds.14 mph53%29.91 "Hg15 mi
11:00 PM
Mon, May 2
45 °FBroken clouds.13 mph46%29.90 "Hg40 mi
10:00 PM45 °FScattered clouds.15 mph46%29.90 "Hg40 mi
9:00 PM50 °FBroken clouds.18 mph37%29.88 "Hg40 mi
8:00 PM54 °FScattered clouds.15 mph33%29.86 "Hg40 mi
7:00 PM55 °FBroken clouds.18 mph28%29.84 "Hg40 mi
6:00 PM54 °FBroken clouds.23 mph33%29.82 "Hg40 mi
5:00 PM57 °FBroken clouds.26 mph29%29.80 "Hg40 mi
4:00 PM57 °FBroken clouds.29 mph33%29.79 "Hg40 mi
3:00 PM55 °FBroken clouds.22 mph41%29.77 "Hg40 mi
2:00 PM55 °FBroken clouds.26 mph38%29.75 "Hg40 mi
1:00 PM57 °FBroken clouds.26 mph41%29.74 "Hg40 mi
12:00 PM54 °FScattered showers. Partly sunny.22 mph51%29.71 "Hg40 mi
11:00 AM52 °FBroken clouds.17 mph58%29.70 "Hg40 mi
10:00 AM46 °FBroken clouds.15 mph82%29.70 "Hg40 mi
9:00 AM45 °FBroken clouds.16 mph87%29.69 "Hg20 mi
8:00 AM43 °FLight rain. Broken clouds.15 mph87%29.68 "Hg15 mi
7:00 AM43 °FPartly sunny.14 mph87%29.67 "Hg20 mi
6:00 AM43 °FPassing clouds.18 mph87%29.69 "Hg20 mi
5:00 AM41 °FLight rain. Low clouds.13 mph93%29.72 "Hg10 mi
4:00 AM41 °FOvercast.13 mph93%29.74 "Hg10 mi
3:00 AM41 °FLight rain. Mostly cloudy.10 mph93%29.77 "Hg10 mi
2:00 AM41 °FLight rain. Mostly cloudy.14 mph93%29.79 "Hg10 mi
1:00 AM41 °FMostly cloudy.10 mph93%29.80 "Hg10 mi
Weather by CustomWeather, © 2016

See weather overviewHow to use our weather pages